Regional Weather Roundup
Issued by NWS

Home | Current Version | Previous Version | Graphics & Text | Print | Product List | Glossary On
Versions: 1 2 3 4 5 6 7 8 9 10 11 12 13 14 15 16 17 18 19 20 21 22 23 24 25 26 27 28 29 30 31 32 33 34 35 36 37 38 39 40 41 42 43 44 45 46 47 48 49 50
000
ASUS45 KBOI 270610
RWRID
WEATHER ROUNDUP FOR IDAHO
NATIONAL WEATHER SERVICE BOISE ID
1100 PM MST THU FEB 26 2015

NOTE: "FAIR" INDICATES FEW OR NO CLOUDS BELOW 12000 FEET
WITH NO SIGNIFICANT WEATHER AND/OR OBSTRUCTIONS TO VISIBILITY

IDZ012-014-270700-
SOUTHWEST IDAHO


CITY           SKY/WX    TMP DP  RH WIND       PRES   REMARKS
BOISE          CLOUDY    41  33  73 CALM      29.89F
CALDWELL       MOCLDY    39  28  65 CALM      29.92S
$$

IDZ016-017-270700-
SOUTHCENTRAL IDAHO


CITY           SKY/WX    TMP DP  RH WIND       PRES   REMARKS
BURLEY         CLOUDY    33  29  85 S7        29.87F WCI  27
JEROME         MOCLDY    32  28  85 S5        29.88F WCI  27
TWIN FALLS     CLOUDY    35  29  78 S10       29.88F WCI  27
$$

IDZ019>023-270700-
SOUTHEAST IDAHO


CITY           SKY/WX    TMP DP  RH WIND       PRES   REMARKS
IDAHO FALLS    PTCLDY    25  11  55 NE5       29.90F WCI  19
POCATELLO      CLOUDY    32  25  75 NE3       29.90F
REXBURG        CLOUDY    26  11  52 NE7       29.90F WCI  18
$$

IDZ006-010-011-018-031-032-270700-
CENTRAL IDAHO MOUNTAINS


CITY           SKY/WX    TMP DP  RH WIND       PRES   REMARKS
MCCALL         CLOUDY    29  27  92 CALM      29.84F
HAILEY         CLOUDY    32  32 100 S3        29.87F
STANLEY          N/A     28  18  66 W3        29.83F
SALMON         CLOUDY    28  19  69 N6        29.88F WCI  22
CHALLIS        CLOUDY    32  19  58 NW6       29.86S WCI  26
$$

IDZ002-004-006-007-026-270700-
NORTHERN IDAHO


CITY           SKY/WX    TMP DP  RH WIND       PRES   REMARKS
LEWISTON       CLOUDY    41  38  89 SE3       29.92F
LOWELL           N/A     37  32  82 CALM      29.96F
COEUR D`ALENE  CLOUDY    36  28  75 NE7       29.92S WCI  30
MULLAN PASS    FLURRIES  22  16  78 SE6       29.82F WCI  14
$$


USA.gov is the U.S. government's official web portal to all federal, state and local government web resources and services.